This is the latest recevied weather packets stored in our database for station/object W2OBX. If no packets are shown the sender has not sent any weather packets the latest 10 day(s).
| Time | Temp. | Humidity | Pressure | Rain* | Wind** | Luminosity | Snow |
|---|---|---|---|---|---|---|---|
| 1777780998 | 8.89° C | 74% | 1018 hPa | 0 mm | - | 0 W/m² | - |
| 1777780695 | 8.89° C | 74% | 1018 hPa | 0 mm | - | 0 W/m² | - |
| 1777780392 | 8.89° C | 74% | 1018 hPa | 0 mm | - | 0 W/m² | - |
| 1777780089 | 9.44° C | 73% | 1018.1 hPa | 0 mm | - | 0 W/m² | - |
| 1777779786 | 9.44° C | 73% | 1018 hPa | 0 mm | - | 0 W/m² | - |
| 1777779483 | 9.44° C | 73% | 1017.9 hPa | 0 mm | - | 0 W/m² | - |
| 1777779181 | 9.44° C | 73% | 1017.9 hPa | 0 mm | - | 0 W/m² | - |
| 1777778879 | 9.44° C | 71% | 1017.9 hPa | 0 mm | - | 0 W/m² | - |
| 1777778578 | 9.44° C | 71% | 1017.8 hPa | 0 mm | - | 0 W/m² | - |
| 1777778274 | 9.44° C | 72% | 1018 hPa | 0 mm | - | 0 W/m² | - |
| 1777777972 | 9.44° C | 70% | 1018 hPa | 0 mm | - | 0 W/m² | - |
| 1777777668 | 9.44° C | 70% | 1017.9 hPa | 0 mm | - | 0 W/m² | - |
| 1777777365 | 10° C | 68% | 1017.9 hPa | 0 mm | - | 0 W/m² | - |
| 1777777062 | 10° C | 68% | 1017.7 hPa | 0 mm | - | 0 W/m² | - |
| 1777776759 | 10° C | 68% | 1017.6 hPa | 0 mm | - | 0 W/m² | - |
| 1777776456 | 10° C | 67% | 1017.6 hPa | 0 mm | - | 0 W/m² | - |
| 1777776153 | 10° C | 64% | 1017.6 hPa | 0 mm | - | 0 W/m² | - |
| 1777775850 | 10° C | 65% | 1017.3 hPa | 0 mm | - | 0 W/m² | - |
| 1777775547 | 10° C | 68% | 1017.5 hPa | 0 mm | - | 0 W/m² | - |
| 1777775242 | 10° C | 68% | 1017.4 hPa | 0 mm | - | 0 W/m² | - |
| 1777774937 | 10° C | 67% | 1017.6 hPa | 0 mm | - | 0 W/m² | - |
| 1777774634 | 10° C | 68% | 1017.6 hPa | 0 mm | - | 0 W/m² | - |
| 1777774330 | 10° C | 69% | 1017.6 hPa | 0 mm | - | 0 W/m² | - |
| 1777774028 | 10° C | 67% | 1017.5 hPa | 0 mm | - | 0 W/m² | - |
| 1777773725 | 10° C | 67% | 1017.2 hPa | 0 mm | - | 0 W/m² | - |
* Rain latest hour (hover to see other rain measurements)
** Current wind speed in m/s (hover to see current wind gust speed)